Weather History for Pittsburgh, PA

Change the Weather History Date:

Sunday, February 3, 2013

  Actual Average Record
Temperature  
Mean Temperature 20 °F 29 °F  
Max Temperature 23 °F 37 °F 66 °F (1883)
Min Temperature 17 °F 22 °F -5 °F (1905)
Degree Days  
Heating Degree Days 45 36  
Month to date heating degree days 144 108  
Since 1 July heating degree days 3244 3417  
Cooling Degree Days 0 0  
Month to date cooling degree days 0 0  
Year to date cooling degree days 0 0  
Moisture  
Dew Point 16 °F    
Average Humidity 80    
Maximum Humidity 92    
Minimum Humidity 68    
Precipitation  
Precipitation 0.03 in 0.08 in 1.02 in (1939)
Month to date precipitation 0.11 0.26  
Year to date precipitation 2.55 2.96  
Snow  
Snow 2.20 in 0.40 in 10.10 in (1961)
Month to date snowfall 4.3 1.2  
Since 1 July snowfall 30.2 23.5  
Snow Depth 3.00 in    
Sea Level Pressure  
Sea Level Pressure 29.91 in    
Wind  
Wind Speed 8 mph (West)    
Max Wind Speed 20 mph    
Max Gust Speed 24 mph    
Visibility 4 miles    
Events Snow    
T = Trace of Precipitation, MM = Missing Value Source: NWS Daily Summary

Daily Weather History Graph

Daily Weather History Graph

Search for Another Location

Airport:

Trip Planner

Search our weather history database for the weather conditions in past years. The results will help you decide how hot, cold, wet, or windy it might be!

Date:

Astronomy

Feb. 03, 2013 Rise Set
Actual Time 7:28 AM EST 5:41 PM EST
Civil Twilight 6:59 AM EST 6:10 PM EST
Nautical Twilight 6:26 AM EST 6:43 PM EST
Astronomical Twilight 5:54 AM EST 7:14 PM EST
Moon 12:54 AM EST (2/3) 11:17 AM EST (2/3)
Length of Visible Light 11h 11m
Length of Day
10h 13m
Waning Gibbous, 49% of the Moon is Illuminated
Feb 3
Waning Gibbous
Feb 10
New
Feb 17
First Quarter
Feb 25
Full
Mar 4
Last Quarter

Hourly Weather History & Observations

Time (EST) Temp. Windchill Dew Point Humidity Pressure Visibility Wind Dir Wind Speed Gust Speed Precip Events Conditions
12:51 AM 23.0 °F 15.8 °F 19.9 °F 88% 29.99 in 5.0 mi SW 5.8 mph - 0.00 in Snow Light Snow
1:51 AM 23.0 °F 17.0 °F 19.9 °F 88% 29.97 in 4.0 mi SW 4.6 mph - 0.00 in Snow Light Snow
2:31 AM 23.0 °F 18.4 °F 19.4 °F 86% 29.89 in 7.0 mi WSW 3.5 mph - 0.00 in Snow Light Snow
2:51 AM 21.9 °F - 19.9 °F 92% 29.96 in 9.0 mi Calm Calm - 0.00 in Snow Light Snow
3:51 AM 21.9 °F 17.2 °F 19.9 °F 92% 29.94 in 7.0 mi SW 3.5 mph - 0.00 in Snow Light Snow
4:51 AM 23.0 °F 17.0 °F 19.4 °F 86% 29.85 in 3.0 mi SW 4.6 mph - N/A Snow Light Snow
5:08 AM 23.0 °F 18.4 °F 19.4 °F 86% 29.84 in 2.0 mi SW 3.5 mph - 0.00 in Snow Light Snow
5:51 AM 23.0 °F 18.4 °F 19.9 °F 88% 29.91 in 5.0 mi SW 3.5 mph - 0.00 in Snow Light Snow
6:24 AM 23.0 °F 17.0 °F 19.4 °F 86% 29.83 in 5.0 mi WSW 4.6 mph - 0.00 in Snow Light Snow
6:51 AM 23.0 °F 17.0 °F 19.9 °F 88% 29.91 in 6.0 mi SW 4.6 mph - 0.00 in Snow Light Snow
7:08 AM 23.0 °F 17.0 °F 19.4 °F 86% 29.84 in 7.0 mi West 4.6 mph - 0.00 in Snow Light Snow
7:41 AM 21.2 °F 12.6 °F 17.6 °F 86% 29.83 in 7.0 mi NW 6.9 mph - 0.00 in Snow Light Snow
7:51 AM 21.9 °F 17.2 °F 18.0 °F 85% 29.91 in 6.0 mi WNW 3.5 mph - 0.00 in Snow Light Snow
8:51 AM 21.2 °F 13.6 °F 17.6 °F 86% 29.84 in 6.0 mi West 5.8 mph - N/A Snow Light Snow
9:15 AM 21.2 °F 13.6 °F 17.6 °F 86% 29.84 in 2.0 mi West 5.8 mph - 0.00 in Snow Light Snow
9:51 AM 23.0 °F 14.7 °F 18.0 °F 81% 29.91 in 2.0 mi WNW 6.9 mph - 0.00 in Snow Light Snow
10:51 AM 23.0 °F 15.8 °F 19.0 °F 85% 29.90 in 2.0 mi WNW 5.8 mph - 0.00 in Snow Light Snow
11:32 AM 23.0 °F 11.7 °F 17.6 °F 80% 29.82 in 1.0 mi NW 11.5 mph - 0.01 in Snow Light Snow
11:51 AM 21.9 °F 11.0 °F 18.0 °F 85% 29.90 in 1.5 mi NW 10.4 mph - 0.01 in Snow Light Snow
12:51 PM 21.9 °F 11.0 °F 17.1 °F 82% 29.88 in 1.5 mi WNW 10.4 mph - 0.00 in Snow Light Snow
1:31 PM 23.0 °F 13.9 °F 15.8 °F 74% 29.80 in 2.5 mi WNW 8.1 mph - 0.00 in Snow Light Snow
1:44 PM 23.0 °F 11.7 °F 15.8 °F 74% 29.80 in 3.0 mi West 11.5 mph - 0.00 in Snow Light Snow
1:51 PM 23.0 °F 12.4 °F 16.0 °F 74% 29.87 in 3.0 mi WNW 10.4 mph - 0.00 in Snow Light Snow
2:29 PM 23.0 °F 11.1 °F 15.8 °F 74% 29.80 in 3.0 mi WNW 12.7 mph - 0.00 in Snow Light Snow
2:51 PM 23.0 °F 11.7 °F 15.8 °F 74% 29.81 in 5.0 mi WNW 11.5 mph - N/A Snow Light Snow
3:37 PM 21.2 °F 6.8 °F 12.2 °F 68% 29.82 in 6.0 mi WNW 17.3 mph 23.0 mph 0.00 in Snow Light Snow
3:51 PM 21.9 °F 8.7 °F 12.9 °F 68% 29.90 in 8.0 mi WNW 15.0 mph - 0.00 in Snow Light Snow
4:51 PM 21.0 °F 8.6 °F 12.0 °F 68% 29.92 in 9.0 mi WNW 12.7 mph - 0.00 in Snow Light Snow
5:51 PM 19.9 °F 5.7 °F 12.9 °F 74% 29.94 in 6.0 mi WNW 16.1 mph - 0.00 in Snow Light Snow
6:51 PM 19.9 °F 11.1 °F 12.9 °F 74% 29.97 in 5.0 mi West 6.9 mph - 0.00 in Snow Light Snow
7:38 PM 19.4 °F 10.4 °F 14.0 °F 80% 29.92 in 2.0 mi West 6.9 mph - 0.00 in Snow Light Snow
7:51 PM 19.0 °F 11.1 °F 14.0 °F 81% 30.00 in 2.0 mi West 5.8 mph - 0.00 in Snow Light Snow
8:28 PM 19.4 °F 7.9 °F 12.2 °F 74% 29.93 in 1.0 mi West 10.4 mph 21.9 mph 0.00 in Snow Light Snow
8:44 PM 19.4 °F 7.2 °F 12.2 °F 74% 29.94 in 3.0 mi West 11.5 mph 19.6 mph 0.00 in Snow Light Snow
8:51 PM 19.0 °F 6.1 °F 12.9 °F 77% 30.02 in 5.0 mi West 12.7 mph 19.6 mph 0.00 in Snow Light Snow
9:51 PM 18.0 °F 6.1 °F 12.0 °F 78% 30.03 in 5.0 mi West 10.4 mph 20.7 mph 0.00 in Snow Light Snow
10:30 PM 17.6 °F 5.7 °F 10.4 °F 73% 29.97 in 6.0 mi West 10.4 mph 17.3 mph 0.00 in Snow Light Snow
10:51 PM 18.0 °F 4.2 °F 10.0 °F 71% 30.06 in 7.0 mi West 13.8 mph 20.7 mph 0.00 in Snow Light Snow
11:51 PM 17.1 °F 5.0 °F 10.0 °F 74% 30.07 in 5.0 mi West 10.4 mph - 0.00 in Snow Light Snow